Location: Joplin
(37.0842°N, 94.5131°W)
Time: 20:55:51
(UTC-05:00)

N. Korean satellite - Visible Passes

Search period start: 16 October 2018 00:00
Search period end: 26 October 2018 00:00
Orbit: 459 x 510 km, 97.2° (Epoch: 16 October)

Date Brightness Start Highest point End Pass type
(mag) Time Alt. Az. Time Alt. Az. Time Alt. Az.
16 Oct 10.5 06:36:32 10° ENE 06:37:55 12° E 06:39:18 10° ESE visible
17 Oct 10.0 19:51:31 10° SW 19:53:56 17° W 19:56:23 10° NW visible
18 Oct 8.6 19:26:02 10° SSW 19:29:24 33° W 19:32:50 10° NNW visible
19 Oct 9.7 06:55:25 10° NE 06:58:15 21° E 07:01:02 10° SSE visible
19 Oct 6.9 19:01:15 10° S 19:04:58 75° W 19:08:42 10° NNW visible
20 Oct 10.7 06:33:12 10° E 06:33:39 10° E 06:34:06 10° E visible
21 Oct 9.8 19:47:01 10° SW 19:49:41 19° W 19:52:22 10° NW visible
22 Oct 8.3 19:21:40 10° SSW 19:25:09 38° W 19:28:40 10° NNW visible
23 Oct 9.9 06:51:21 10° NE 06:53:57 19° E 06:56:31 10° SE visible
23 Oct 6.7 18:56:59 10° S 19:00:42 85° WSW 19:04:27 10° NNW visible
24 Oct 10.5 20:09:27 10° W 20:09:58 10° W 20:10:29 10° W visible
25 Oct 9.5 19:42:30 10° SW 19:45:23 21° W 19:48:15 10° NW visible
